Simultaneous Nadir Overpasses (SNOs) Predictions

Prediction of SNOs between AQUA and METOP-C Satellite Orbit:

Table of predicted SNOs for the next 14.0 days since TLE Epoch: 3/12/2022
Index Date (AQUA) Time (AQUA) Lat,Lon (AQUA) SZA (AQUA ) Date (METOP-C) Time (METOP-C) Lat,Lon (METOP-C) SZA (METOP-C ) Distance(km) Time Diff (sec)
1 03/12/2022 18:47:53 -73.80, 72.57 103.04 03/12/2022 18:47:03 -73.78, 72.64 103.05 2.68 50
2 03/12/2022 19:37:21 73.81,-119.83 76.97 03/12/2022 19:37:41 73.84,-119.89 76.99 3.03 20
3 03/15/2022 14:21:59 -73.78, 139.08 104.17 03/15/2022 14:21:26 -73.78, 139.05 104.17 1.21 33
4 03/15/2022 15:11:28 73.86, -53.45 75.90 03/15/2022 15:12:04 73.84, -53.47 75.88 2.04 36
5 03/18/2022 09:06:26 73.14, 39.29 74.04 03/18/2022 09:05:20 73.06, 36.50 74.09 90.53 66
6 03/18/2022 09:56:04 -73.80,-154.47 105.27 03/18/2022 09:55:47 -73.83,-154.44 105.24 2.96 17
7 03/18/2022 10:45:33 73.88, 12.99 74.80 03/18/2022 10:46:25 73.89, 13.05 74.81 2.26 52
8 03/21/2022 04:40:42 73.71, 104.57 73.53 03/21/2022 04:39:30 73.71, 104.36 73.55 6.59 72
9 03/21/2022 05:30:10 -73.85, -88.08 106.34 03/21/2022 05:30:10 -73.82, -88.06 106.37 3.24 0
10 03/21/2022 06:19:38 73.88, 79.49 73.68 03/21/2022 06:20:48 73.89, 79.45 73.68 1.66 70
11 03/24/2022 00:14:48 73.79, 170.89 72.50 03/24/2022 00:13:51 73.80, 170.98 72.51 2.86 57
12 03/24/2022 01:04:15 -73.87, -21.63 107.44 03/24/2022 01:04:32 -73.85, -21.57 107.46 2.65 17



Historial Predications of SNOs between AQUA and METOP-C
